TimeEST,TemperatureF,Dew PointF,Humidity,Sea Level PressureIn,VisibilityMPH,Wind Direction,Wind SpeedMPH,Gust SpeedMPH,PrecipitationIn,Events,Conditions,WindDirDegrees,DateUTC
12:53 AM,28.9,21.9,75,30.28,10.0,SE,8.1,-,N/A,,Clear,130,2012-12-06 05:53:00
1:53 AM,28.9,21.9,75,30.27,10.0,SE,11.5,-,N/A,,Clear,130,2012-12-06 06:53:00
2:53 AM,28.9,21.9,75,30.28,10.0,SE,8.1,-,N/A,,Clear,130,2012-12-06 07:53:00
3:53 AM,28.9,21.9,75,30.27,10.0,SE,9.2,-,N/A,,Clear,130,2012-12-06 08:53:00
4:53 AM,28.9,21.9,75,30.25,10.0,SE,9.2,-,N/A,,Clear,130,2012-12-06 09:53:00
5:53 AM,28.9,21.9,75,30.24,10.0,SE,10.4,-,N/A,,Clear,130,2012-12-06 10:53:00
6:53 AM,28.0,21.0,75,30.23,10.0,SE,8.1,-,N/A,,Clear,140,2012-12-06 11:53:00
7:53 AM,28.9,21.9,75,30.21,10.0,SE,11.5,-,N/A,,Clear,140,2012-12-06 12:53:00
8:53 AM,30.0,23.0,75,30.21,10.0,SE,5.8,-,N/A,,Clear,130,2012-12-06 13:53:00
9:53 AM,30.9,24.1,76,30.21,10.0,SE,4.6,-,N/A,,Clear,140,2012-12-06 14:53:00
10:53 AM,33.1,25.0,72,30.19,10.0,SE,6.9,-,N/A,,Clear,140,2012-12-06 15:53:00
11:53 AM,35.1,27.0,72,30.14,10.0,SSE,8.1,-,N/A,,Clear,150,2012-12-06 16:53:00
12:53 PM,39.0,28.9,67,30.11,10.0,SSE,9.2,-,N/A,,Clear,150,2012-12-06 17:53:00
1:53 PM,39.9,30.0,68,30.07,10.0,SSE,5.8,-,N/A,,Clear,160,2012-12-06 18:53:00
2:53 PM,42.1,30.9,65,30.04,10.0,SSE,9.2,-,N/A,,Clear,160,2012-12-06 19:53:00
3:53 PM,42.1,32.0,67,30.03,10.0,SSE,6.9,-,N/A,,Clear,160,2012-12-06 20:53:00
4:53 PM,41.0,32.0,70,30.02,10.0,SSE,5.8,-,N/A,,Clear,150,2012-12-06 21:53:00
5:53 PM,39.9,32.0,73,30.01,10.0,SSE,9.2,-,N/A,,Clear,150,2012-12-06 22:53:00
6:53 PM,39.0,32.0,76,30.01,10.0,SSE,5.8,-,N/A,,Clear,150,2012-12-06 23:53:00
7:53 PM,37.9,32.0,79,30.01,9.0,SE,4.6,-,N/A,,Clear,140,2012-12-07 00:53:00
8:53 PM,37.9,33.1,83,29.99,8.0,SE,5.8,-,N/A,,Clear,140,2012-12-07 01:53:00
9:53 PM,39.0,33.1,79,29.98,8.0,SE,5.8,-,N/A,,Mostly Cloudy,140,2012-12-07 02:53:00
10:53 PM,39.9,34.0,79,29.98,8.0,SSE,3.5,-,N/A,,Overcast,150,2012-12-07 03:53:00
11:53 PM,41.0,35.1,79,29.96,9.0,SSE,8.1,-,0.00,,Mostly Cloudy,160,2012-12-07 04:53:00